Location: Acheville
(50.3840°N, 2.8827°E)
Time: 18:06:34
(UTC+00:00)

Cosmos 44 - Pass Details

Date: 24 October 2021
Orbit: 580 x 782 km, 65.1° (Epoch: 06 December)

Event Time Altitude Azimuth Distance (km) Brightness Sun altitude
Rises 18:32:54 0° 205° (SSW) 3,254 7.0 -18.8°
Reaches altitude 10° 18:35:20 10° 202° (SSW) 2,331 6.2 -19.2°
Maximum altitude 18:40:37 60° 124° (SE) 890 3.5 -20.0°
Enters shadow 18:42:36 36° 62° (ENE) 1,200 4.1 -20.4°
